Year,Month,Day,Hour,Minute,Value (Times are PST for windspeed in km/hr)
2015,08,28,00,00,8.80
2015,08,28,00,01,7.30
2015,08,28,00,02,17.30
2015,08,28,00,03,15.60
2015,08,28,00,04,15.80
2015,08,28,00,05,10.90
2015,08,28,00,06,5.00
2015,08,28,00,07,7.50
2015,08,28,00,08,9.90
2015,08,28,00,09,17.10
2015,08,28,00,10,16.20
2015,08,28,00,11,13.80
2015,08,28,00,12,12.90
2015,08,28,00,13,9.70
2015,08,28,00,14,13.40
2015,08,28,00,15,7.00
2015,08,28,00,16,4.40
2015,08,28,00,17,2.50
2015,08,28,00,18,8.90
2015,08,28,00,19,5.90
2015,08,28,00,20,6.30
2015,08,28,00,21,2.30
2015,08,28,00,22,2.80
2015,08,28,00,23,6.90
2015,08,28,00,24,13.90
2015,08,28,00,25,7.60
2015,08,28,00,26,4.40
2015,08,28,00,27,3.90
2015,08,28,00,28,5.60
2015,08,28,00,29,3.30
2015,08,28,00,30,5.10
2015,08,28,00,31,6.00
2015,08,28,00,32,4.00
2015,08,28,00,33,4.50
2015,08,28,00,34,2.80
2015,08,28,00,35,4.80
2015,08,28,00,36,7.90
2015,08,28,00,37,6.10
2015,08,28,00,38,4.00
2015,08,28,00,39,3.40
2015,08,28,00,40,4.70
2015,08,28,00,41,2.80
2015,08,28,00,42,3.40
2015,08,28,00,43,0.60
2015,08,28,00,44,0.10
2015,08,28,00,45,0.10
2015,08,28,00,46,1.50
2015,08,28,00,47,1.20
2015,08,28,00,48,1.40
2015,08,28,00,49,2.10
2015,08,28,00,50,2.30
2015,08,28,00,51,2.50
2015,08,28,00,52,0.70
2015,08,28,00,53,0.80
2015,08,28,00,54,0.20
2015,08,28,00,55,0.30
2015,08,28,00,56,1.10
2015,08,28,00,57,2.60
2015,08,28,00,58,1.40
2015,08,28,00,59,0.30
2015,08,28,01,00,0.30
2015,08,28,01,01,1.30
2015,08,28,01,02,1.10
2015,08,28,01,03,0.60
2015,08,28,01,04,2.80
2015,08,28,01,05,3.50
2015,08,28,01,06,4.10
2015,08,28,01,07,3.10
2015,08,28,01,08,3.50
2015,08,28,01,09,5.10
2015,08,28,01,10,3.10
2015,08,28,01,11,2.70
2015,08,28,01,12,2.20
2015,08,28,01,13,2.70
2015,08,28,01,14,3.10
2015,08,28,01,15,2.20
2015,08,28,01,16,0.70
2015,08,28,01,17,1.80
2015,08,28,01,18,1.40
2015,08,28,01,19,0.50
2015,08,28,01,20,0.00
2015,08,28,01,21,0.00
2015,08,28,01,22,0.90
2015,08,28,01,23,0.20
2015,08,28,01,24,1.40
2015,08,28,01,25,2.10
2015,08,28,01,26,2.00
2015,08,28,01,27,0.90
2015,08,28,01,28,1.60
2015,08,28,01,29,1.90
2015,08,28,01,30,0.60
2015,08,28,01,31,1.60
2015,08,28,01,32,1.90
2015,08,28,01,33,1.20
2015,08,28,01,34,0.80
2015,08,28,01,35,0.30
2015,08,28,01,36,0.40
2015,08,28,01,37,1.20
2015,08,28,01,38,0.60
2015,08,28,01,39,1.20
2015,08,28,01,40,0.30
2015,08,28,01,41,1.20
2015,08,28,01,42,1.00
2015,08,28,01,43,3.00
2015,08,28,01,44,1.40
2015,08,28,01,45,1.40
2015,08,28,01,46,3.60
2015,08,28,01,47,1.70
2015,08,28,01,48,0.20
2015,08,28,01,49,2.00
2015,08,28,01,50,3.40
2015,08,28,01,51,2.40
2015,08,28,01,52,0.70
2015,08,28,01,53,1.00
2015,08,28,01,54,1.50
2015,08,28,01,55,2.80
2015,08,28,01,56,2.20
2015,08,28,01,57,2.80
2015,08,28,01,58,3.10
2015,08,28,01,59,0.50
2015,08,28,02,00,0.00
2015,08,28,02,01,0.00
2015,08,28,02,02,0.10
2015,08,28,02,03,0.60
2015,08,28,02,04,0.90
2015,08,28,02,05,0.60
2015,08,28,02,06,0.90
2015,08,28,02,07,1.50
2015,08,28,02,08,3.40
2015,08,28,02,09,3.90
2015,08,28,02,10,2.80
2015,08,28,02,11,2.40
2015,08,28,02,12,1.50
2015,08,28,02,13,0.20
2015,08,28,02,14,0.10
2015,08,28,02,15,3.10
2015,08,28,02,16,3.50
2015,08,28,02,17,0.50
2015,08,28,02,18,0.00
2015,08,28,02,19,1.00
2015,08,28,02,20,1.20
2015,08,28,02,21,0.20
2015,08,28,02,22,0.50
2015,08,28,02,23,0.30
2015,08,28,02,24,1.30
2015,08,28,02,25,3.40
2015,08,28,02,26,3.40
2015,08,28,02,27,2.60
2015,08,28,02,28,1.50
2015,08,28,02,29,1.20
2015,08,28,02,30,0.20
2015,08,28,02,31,1.50
2015,08,28,02,32,2.90
2015,08,28,02,33,1.50
2015,08,28,02,34,0.80
2015,08,28,02,35,0.10
2015,08,28,02,36,1.00
2015,08,28,02,37,0.30
2015,08,28,02,38,0.10
2015,08,28,02,39,1.50
2015,08,28,02,40,3.50
2015,08,28,02,41,4.10
2015,08,28,02,42,0.00
2015,08,28,02,43,0.20
2015,08,28,02,44,0.80
2015,08,28,02,45,3.70
2015,08,28,02,46,3.90
2015,08,28,02,47,4.30
2015,08,28,02,48,2.70
2015,08,28,02,49,4.10
2015,08,28,02,50,4.50
2015,08,28,02,51,4.50
2015,08,28,02,52,5.50
2015,08,28,02,53,4.80
2015,08,28,02,54,4.70
2015,08,28,02,55,3.70
2015,08,28,02,56,3.50
2015,08,28,02,57,4.90
2015,08,28,02,58,2.80
2015,08,28,02,59,0.90
2015,08,28,03,00,3.10
2015,08,28,03,01,3.40
2015,08,28,03,02,2.70
2015,08,28,03,03,3.50
2015,08,28,03,04,3.90
2015,08,28,03,05,3.10
2015,08,28,03,06,2.70
2015,08,28,03,07,2.50
2015,08,28,03,08,1.00
2015,08,28,03,09,0.20
2015,08,28,03,10,0.80
2015,08,28,03,11,0.20
2015,08,28,03,12,0.40
2015,08,28,03,13,0.10
2015,08,28,03,14,0.00
2015,08,28,03,15,0.00
2015,08,28,03,16,0.20
2015,08,28,03,17,0.20
2015,08,28,03,18,0.10
2015,08,28,03,19,1.40
2015,08,28,03,20,3.90
2015,08,28,03,21,3.50
2015,08,28,03,22,1.70
2015,08,28,03,23,1.60
2015,08,28,03,24,1.40
2015,08,28,03,25,2.80
2015,08,28,03,26,4.30
2015,08,28,03,27,3.40
2015,08,28,03,28,2.60
2015,08,28,03,29,5.10
2015,08,28,03,30,4.30
2015,08,28,03,31,3.50
2015,08,28,03,32,5.80
2015,08,28,03,33,6.00
2015,08,28,03,34,5.30
2015,08,28,03,35,4.70
2015,08,28,03,36,5.70
2015,08,28,03,37,4.40
2015,08,28,03,38,3.40
2015,08,28,03,39,6.80
2015,08,28,03,40,7.50
2015,08,28,03,41,5.70
2015,08,28,03,42,8.00
2015,08,28,03,43,5.30
2015,08,28,03,44,5.70
2015,08,28,03,45,7.10
2015,08,28,03,46,7.70
2015,08,28,03,47,5.60
2015,08,28,03,48,6.60
2015,08,28,03,49,5.50
2015,08,28,03,50,5.40
2015,08,28,03,51,4.40
2015,08,28,03,52,4.90
2015,08,28,03,53,4.50
2015,08,28,03,54,4.80
2015,08,28,03,55,6.10
2015,08,28,03,56,6.80
2015,08,28,03,57,8.10
2015,08,28,03,58,7.50
2015,08,28,03,59,7.30
2015,08,28,04,00,7.10
2015,08,28,04,01,5.30
2015,08,28,04,02,6.60
2015,08,28,04,03,6.80
2015,08,28,04,04,5.40
2015,08,28,04,05,4.30
2015,08,28,04,06,7.90
2015,08,28,04,07,6.50
2015,08,28,04,08,1.90
2015,08,28,04,09,3.90
2015,08,28,04,10,0.70
2015,08,28,04,11,1.50
2015,08,28,04,12,1.00
2015,08,28,04,13,0.20
2015,08,28,04,14,1.00
2015,08,28,04,15,2.00
2015,08,28,04,16,2.90
2015,08,28,04,17,3.50
2015,08,28,04,18,3.60
2015,08,28,04,19,3.60
2015,08,28,04,20,3.50
2015,08,28,04,21,4.60
2015,08,28,04,22,6.20
2015,08,28,04,23,3.80
2015,08,28,04,24,4.10
2015,08,28,04,25,4.40
2015,08,28,04,26,4.80
2015,08,28,04,27,3.00
2015,08,28,04,28,6.40
2015,08,28,04,29,5.40
2015,08,28,04,30,5.00
2015,08,28,04,31,5.60
2015,08,28,04,32,3.60
2015,08,28,04,33,4.60
2015,08,28,04,34,6.70
2015,08,28,04,35,11.10
2015,08,28,04,36,9.70
2015,08,28,04,37,10.20
2015,08,28,04,38,4.60
2015,08,28,04,39,8.50
2015,08,28,04,40,10.70
2015,08,28,04,41,8.30
2015,08,28,04,42,11.00
2015,08,28,04,43,14.10
2015,08,28,04,44,9.30
2015,08,28,04,45,8.90
2015,08,28,04,46,6.00
2015,08,28,04,47,6.30
2015,08,28,04,48,8.00
2015,08,28,04,49,6.40
2015,08,28,04,50,7.80
2015,08,28,04,51,9.10
2015,08,28,04,52,4.60
2015,08,28,04,53,4.80
2015,08,28,04,54,6.10
2015,08,28,04,55,5.60
2015,08,28,04,56,5.80
2015,08,28,04,57,6.00
2015,08,28,04,58,11.00
2015,08,28,04,59,5.40
2015,08,28,05,00,6.40
2015,08,28,05,01,7.30
2015,08,28,05,02,4.70
2015,08,28,05,03,5.60
2015,08,28,05,04,4.30
2015,08,28,05,05,2.40
2015,08,28,05,06,5.30
2015,08,28,05,07,6.20
2015,08,28,05,08,7.20
2015,08,28,05,09,7.30
2015,08,28,05,10,8.90
2015,08,28,05,11,5.70
2015,08,28,05,12,3.30
2015,08,28,05,13,7.20
2015,08,28,05,14,11.20
2015,08,28,05,15,11.60
2015,08,28,05,16,7.20
2015,08,28,05,17,4.70
2015,08,28,05,18,4.30
2015,08,28,05,19,4.50
2015,08,28,05,20,6.60
2015,08,28,05,21,5.70
2015,08,28,05,22,5.10
2015,08,28,05,23,3.50
2015,08,28,05,24,5.10
2015,08,28,05,25,6.10
2015,08,28,05,26,6.40
2015,08,28,05,27,6.70
2015,08,28,05,28,5.50
2015,08,28,05,29,2.60
2015,08,28,05,30,5.30
2015,08,28,05,31,6.00
2015,08,28,05,32,5.80
2015,08,28,05,33,6.50
2015,08,28,05,34,7.10
2015,08,28,05,35,5.90
2015,08,28,05,36,5.70
2015,08,28,05,37,7.90
2015,08,28,05,38,5.10
2015,08,28,05,39,6.40
2015,08,28,05,40,7.10
2015,08,28,05,41,10.50
2015,08,28,05,42,10.20
2015,08,28,05,43,6.00
2015,08,28,05,44,5.00
2015,08,28,05,45,4.20
2015,08,28,05,46,9.00
2015,08,28,05,47,8.40
2015,08,28,05,48,7.10
2015,08,28,05,49,4.80
2015,08,28,05,50,3.30
2015,08,28,05,51,7.20
2015,08,28,05,52,5.50
2015,08,28,05,53,6.30
2015,08,28,05,54,5.30
2015,08,28,05,55,8.10
2015,08,28,05,56,8.30
2015,08,28,05,57,5.00
2015,08,28,05,58,3.80
2015,08,28,05,59,4.40
2015,08,28,06,00,3.60
2015,08,28,06,01,4.90
2015,08,28,06,02,6.30
2015,08,28,06,03,5.50
2015,08,28,06,04,3.10
2015,08,28,06,05,2.20
2015,08,28,06,06,4.10
2015,08,28,06,07,4.40
2015,08,28,06,08,5.10
2015,08,28,06,09,5.90
2015,08,28,06,10,4.10
2015,08,28,06,11,4.90
2015,08,28,06,12,4.70
2015,08,28,06,13,4.90
2015,08,28,06,14,5.50
2015,08,28,06,15,4.20
2015,08,28,06,16,3.80
2015,08,28,06,17,8.80
2015,08,28,06,18,6.00
2015,08,28,06,19,6.20
2015,08,28,06,20,7.20
2015,08,28,06,21,4.10
2015,08,28,06,22,2.50
2015,08,28,06,23,4.10
2015,08,28,06,24,6.50
2015,08,28,06,25,7.60
2015,08,28,06,26,6.90
2015,08,28,06,27,5.70
2015,08,28,06,28,5.50
2015,08,28,06,29,4.90
2015,08,28,06,30,4.30
2015,08,28,06,31,7.60
2015,08,28,06,32,8.20
2015,08,28,06,33,5.70
2015,08,28,06,34,6.20
2015,08,28,06,35,6.10
2015,08,28,06,36,6.10
2015,08,28,06,37,5.70
2015,08,28,06,38,7.20
2015,08,28,06,39,5.10
2015,08,28,06,40,4.30
2015,08,28,06,41,4.90
2015,08,28,06,42,6.00
2015,08,28,06,43,5.70
2015,08,28,06,44,4.00
2015,08,28,06,45,6.40
2015,08,28,06,46,5.10
2015,08,28,06,47,7.00
2015,08,28,06,48,6.30
2015,08,28,06,49,6.20
2015,08,28,06,50,3.80
2015,08,28,06,51,5.60
2015,08,28,06,52,6.80
2015,08,28,06,53,3.90
2015,08,28,06,54,1.40
2015,08,28,06,55,3.10
2015,08,28,06,56,1.70
2015,08,28,06,57,3.30
2015,08,28,06,58,3.50
2015,08,28,06,59,4.10
2015,08,28,07,00,4.30
2015,08,28,07,01,9.10
2015,08,28,07,02,11.30
2015,08,28,07,03,11.30
2015,08,28,07,04,11.30
2015,08,28,07,05,11.30
2015,08,28,07,06,11.30
2015,08,28,07,07,11.30
2015,08,28,07,08,7.30
2015,08,28,07,09,3.50
2015,08,28,07,10,3.20
2015,08,28,07,11,5.50
2015,08,28,07,12,5.10
2015,08,28,07,13,5.80
2015,08,28,07,14,7.10
2015,08,28,07,15,6.40
2015,08,28,07,16,4.80
2015,08,28,07,17,5.40
2015,08,28,07,18,4.30
2015,08,28,07,19,5.10
2015,08,28,07,20,6.40
2015,08,28,07,21,7.30
2015,08,28,07,22,7.50
2015,08,28,07,23,10.10
2015,08,28,07,24,11.70
2015,08,28,07,25,11.80
2015,08,28,07,26,8.00
2015,08,28,07,27,8.00
2015,08,28,07,28,9.70
2015,08,28,07,29,12.50
2015,08,28,07,30,9.70
2015,08,28,07,31,9.10
2015,08,28,07,32,9.10
2015,08,28,07,33,12.20
2015,08,28,07,34,13.60
2015,08,28,07,35,10.70
2015,08,28,07,36,11.30
2015,08,28,07,37,12.30
2015,08,28,07,38,12.10
2015,08,28,07,39,11.70
2015,08,28,07,40,9.60
2015,08,28,07,41,12.40
2015,08,28,07,42,10.90
2015,08,28,07,43,13.80
2015,08,28,07,44,13.50
2015,08,28,07,45,12.00
2015,08,28,07,46,12.40
2015,08,28,07,47,11.10
2015,08,28,07,48,13.80
2015,08,28,07,49,11.70
2015,08,28,07,50,10.10
2015,08,28,07,51,9.70
2015,08,28,07,52,9.00
2015,08,28,07,53,10.00
2015,08,28,07,54,6.30
2015,08,28,07,55,5.90
2015,08,28,07,56,10.30
2015,08,28,07,57,8.70
2015,08,28,07,58,9.60
2015,08,28,07,59,11.20
2015,08,28,08,00,9.70
2015,08,28,08,01,9.40
2015,08,28,08,02,8.10
2015,08,28,08,03,9.80
2015,08,28,08,04,6.80
2015,08,28,08,05,8.60
2015,08,28,08,06,8.70
2015,08,28,08,07,6.50
2015,08,28,08,08,7.00
2015,08,28,08,09,7.50
2015,08,28,08,10,6.80
2015,08,28,08,11,6.40
2015,08,28,08,12,7.90
2015,08,28,08,13,8.80
2015,08,28,08,14,10.10
2015,08,28,08,15,6.40
2015,08,28,08,16,13.00
2015,08,28,08,17,12.50
2015,08,28,08,18,7.80
2015,08,28,08,19,5.60
2015,08,28,08,20,7.70
2015,08,28,08,21,5.40
2015,08,28,08,22,5.50
2015,08,28,08,23,4.60
2015,08,28,08,24,6.30
2015,08,28,08,25,6.50
2015,08,28,08,26,6.00
2015,08,28,08,27,5.30
2015,08,28,08,28,2.40
2015,08,28,08,29,4.30
2015,08,28,08,30,3.30
2015,08,28,08,31,2.40
2015,08,28,08,32,2.90
2015,08,28,08,33,2.90
2015,08,28,08,34,3.00
2015,08,28,08,35,2.70
2015,08,28,08,36,4.00
2015,08,28,08,37,3.70
2015,08,28,08,38,6.10
2015,08,28,08,39,4.50
2015,08,28,08,40,4.20
2015,08,28,08,41,6.40
2015,08,28,08,42,5.80
2015,08,28,08,43,4.80
2015,08,28,08,44,6.10
2015,08,28,08,45,6.40
2015,08,28,08,46,4.50
2015,08,28,08,47,2.60
2015,08,28,08,48,3.40
2015,08,28,08,49,5.50
2015,08,28,08,50,2.90
2015,08,28,08,51,5.50
2015,08,28,08,52,6.80
2015,08,28,08,53,6.00
2015,08,28,08,54,4.10
2015,08,28,08,55,5.80
2015,08,28,08,56,6.70
2015,08,28,08,57,6.40
2015,08,28,08,58,6.10
2015,08,28,08,59,5.00
2015,08,28,09,00,5.20
2015,08,28,09,01,3.70
2015,08,28,09,02,4.00
2015,08,28,09,03,5.70
2015,08,28,09,04,4.70
2015,08,28,09,05,7.20
2015,08,28,09,06,4.30
2015,08,28,09,07,7.90
2015,08,28,09,08,7.80
2015,08,28,09,09,6.30
2015,08,28,09,10,6.00
2015,08,28,09,11,5.60
2015,08,28,09,12,6.40
2015,08,28,09,13,7.20
2015,08,28,09,14,9.00
2015,08,28,09,15,4.50
2015,08,28,09,16,7.70
2015,08,28,09,17,6.40
2015,08,28,09,18,6.70
2015,08,28,09,19,6.80
2015,08,28,09,20,7.40
2015,08,28,09,21,10.50
2015,08,28,09,22,8.00
2015,08,28,09,23,9.60
2015,08,28,09,24,7.50
2015,08,28,09,25,4.30
2015,08,28,09,26,4.70
2015,08,28,09,27,7.10
2015,08,28,09,28,11.90
2015,08,28,09,29,8.30
2015,08,28,09,30,5.40
2015,08,28,09,31,3.50
2015,08,28,09,32,4.70
2015,08,28,09,33,5.40
2015,08,28,09,34,5.60
2015,08,28,09,35,5.80
2015,08,28,09,36,9.70
2015,08,28,09,37,10.20
2015,08,28,09,38,8.50
2015,08,28,09,39,7.10
2015,08,28,09,40,6.40
2015,08,28,09,41,6.30
2015,08,28,09,42,4.20
2015,08,28,09,43,6.00
2015,08,28,09,44,8.30
2015,08,28,09,45,6.90
2015,08,28,09,46,8.60
2015,08,28,09,47,7.80
2015,08,28,09,48,5.70
2015,08,28,09,49,4.60
2015,08,28,09,50,6.80
2015,08,28,09,51,8.90
2015,08,28,09,52,10.90
2015,08,28,09,53,8.90
2015,08,28,09,54,5.10
2015,08,28,09,55,5.10
2015,08,28,09,56,6.50
2015,08,28,09,57,5.40
2015,08,28,09,58,9.70
2015,08,28,09,59,13.00
2015,08,28,10,00,9.90
2015,08,28,10,01,11.30
2015,08,28,10,02,7.20
2015,08,28,10,03,7.80
2015,08,28,10,04,5.50
2015,08,28,10,05,8.00
2015,08,28,10,06,4.00
2015,08,28,10,07,6.10
2015,08,28,10,08,8.40
2015,08,28,10,09,6.40
2015,08,28,10,10,3.80
2015,08,28,10,11,4.60
2015,08,28,10,12,4.30
2015,08,28,10,13,2.40
2015,08,28,10,14,5.10
2015,08,28,10,15,5.10
2015,08,28,10,16,5.10
2015,08,28,10,17,3.30
2015,08,28,10,18,1.90
2015,08,28,10,19,6.50
2015,08,28,10,20,5.00
2015,08,28,10,21,4.80
2015,08,28,10,22,5.10
2015,08,28,10,23,4.50
2015,08,28,10,24,3.50
2015,08,28,10,25,5.30
2015,08,28,10,26,8.90
2015,08,28,10,27,10.50
2015,08,28,10,28,9.00
2015,08,28,10,29,6.40
2015,08,28,10,30,7.60
2015,08,28,10,31,5.70
2015,08,28,10,32,9.70
2015,08,28,10,33,10.70
2015,08,28,10,34,6.40
2015,08,28,10,35,9.40
2015,08,28,10,36,7.50
2015,08,28,10,37,6.70
2015,08,28,10,38,8.50
2015,08,28,10,39,4.40
2015,08,28,10,40,4.40
2015,08,28,10,41,7.70
2015,08,28,10,42,6.90
2015,08,28,10,43,7.10
2015,08,28,10,44,7.70
2015,08,28,10,45,6.80
2015,08,28,10,46,6.80
2015,08,28,10,47,6.80
2015,08,28,10,48,7.30
2015,08,28,10,49,10.20
2015,08,28,10,50,5.80
2015,08,28,10,51,6.00
2015,08,28,10,52,6.20
2015,08,28,10,53,4.30
2015,08,28,10,54,4.70
2015,08,28,10,55,6.90
2015,08,28,10,56,6.80
2015,08,28,10,57,6.00
2015,08,28,10,58,6.60
2015,08,28,10,59,6.70
2015,08,28,11,00,6.70
2015,08,28,11,01,7.00
2015,08,28,11,02,3.50
2015,08,28,11,03,8.10
2015,08,28,11,04,5.20
2015,08,28,11,05,3.10
2015,08,28,11,06,2.20
2015,08,28,11,07,0.90
2015,08,28,11,08,3.20
2015,08,28,11,09,2.40
2015,08,28,11,10,5.50
2015,08,28,11,11,6.50
2015,08,28,11,12,10.10
2015,08,28,11,13,4.80
2015,08,28,11,14,5.40
2015,08,28,11,15,4.30
2015,08,28,11,16,4.20
2015,08,28,11,17,3.80
2015,08,28,11,18,4.50
2015,08,28,11,19,4.60
2015,08,28,11,20,4.40
2015,08,28,11,21,1.90
2015,08,28,11,22,3.50
2015,08,28,11,23,5.20
2015,08,28,11,24,3.10
2015,08,28,11,25,2.90
2015,08,28,11,26,2.50
2015,08,28,11,27,5.40
2015,08,28,11,28,8.40
2015,08,28,11,29,5.70
2015,08,28,11,30,7.00
2015,08,28,11,31,7.30
2015,08,28,11,32,7.70
2015,08,28,11,33,4.70
2015,08,28,11,34,5.00
2015,08,28,11,35,6.30
2015,08,28,11,36,5.10
2015,08,28,11,37,3.90
2015,08,28,11,38,3.50
2015,08,28,11,39,5.90
2015,08,28,11,40,7.30
2015,08,28,11,41,6.90
2015,08,28,11,42,5.30
2015,08,28,11,43,4.30
2015,08,28,11,44,7.50
2015,08,28,11,45,5.40
2015,08,28,11,46,2.70
2015,08,28,11,47,6.30
2015,08,28,11,48,5.00
2015,08,28,11,49,7.10
2015,08,28,11,50,8.50
2015,08,28,11,51,6.10
2015,08,28,11,52,6.80
2015,08,28,11,53,6.70
2015,08,28,11,54,6.20
2015,08,28,11,55,8.90
2015,08,28,11,56,6.00
2015,08,28,11,57,4.60
2015,08,28,11,58,5.20
2015,08,28,11,59,4.30
2015,08,28,12,00,7.10
2015,08,28,12,01,8.20
2015,08,28,12,02,4.70
2015,08,28,12,03,3.90
2015,08,28,12,04,9.30
2015,08,28,12,05,4.70
2015,08,28,12,06,4.80
2015,08,28,12,07,6.00
2015,08,28,12,08,3.50
2015,08,28,12,09,6.00
2015,08,28,12,10,4.40
2015,08,28,12,11,7.80
2015,08,28,12,12,5.80
2015,08,28,12,13,3.60
2015,08,28,12,14,4.00
2015,08,28,12,15,5.90
2015,08,28,12,16,4.70
2015,08,28,12,17,4.40
2015,08,28,12,18,4.50
2015,08,28,12,19,5.50
2015,08,28,12,20,2.60
2015,08,28,12,21,2.50
2015,08,28,12,22,3.60
2015,08,28,12,23,3.10
2015,08,28,12,24,4.00
2015,08,28,12,25,4.40
2015,08,28,12,26,3.50
2015,08,28,12,27,5.70
2015,08,28,12,28,5.20
2015,08,28,12,29,6.00
2015,08,28,12,30,4.30
2015,08,28,12,31,5.80
2015,08,28,12,32,4.70
2015,08,28,12,33,7.70
2015,08,28,12,34,7.50
2015,08,28,12,35,7.00
2015,08,28,12,36,6.60
2015,08,28,12,37,4.90
2015,08,28,12,38,4.80
2015,08,28,12,39,4.60
2015,08,28,12,40,3.40
2015,08,28,12,41,5.10
2015,08,28,12,42,6.70
2015,08,28,12,43,7.10
2015,08,28,12,44,3.10
2015,08,28,12,45,3.30
2015,08,28,12,46,5.10
2015,08,28,12,47,4.40
2015,08,28,12,48,6.40
2015,08,28,12,49,8.10
2015,08,28,12,50,6.30
2015,08,28,12,51,3.90
2015,08,28,12,52,5.40
2015,08,28,12,53,6.80
2015,08,28,12,54,5.10
2015,08,28,12,55,4.50
2015,08,28,12,56,8.00
2015,08,28,12,57,6.50
2015,08,28,12,58,6.40
2015,08,28,12,59,5.50
2015,08,28,13,00,2.40
2015,08,28,13,01,1.40
2015,08,28,13,02,4.80
2015,08,28,13,03,4.10
2015,08,28,13,04,7.80
2015,08,28,13,05,8.10
2015,08,28,13,06,8.50
2015,08,28,13,07,4.90
2015,08,28,13,08,5.80
2015,08,28,13,09,5.50
2015,08,28,13,10,7.10
2015,08,28,13,11,6.10
2015,08,28,13,12,6.90
2015,08,28,13,13,5.00
2015,08,28,13,14,6.90
2015,08,28,13,15,6.20
2015,08,28,13,16,4.70
2015,08,28,13,17,4.10
2015,08,28,13,18,5.20
2015,08,28,13,19,7.00
2015,08,28,13,20,4.50
2015,08,28,13,21,3.90
2015,08,28,13,22,4.10
2015,08,28,13,23,6.10
2015,08,28,13,24,5.40
2015,08,28,13,25,5.60
2015,08,28,13,26,3.80
2015,08,28,13,27,5.60
2015,08,28,13,28,6.30
2015,08,28,13,29,7.70
2015,08,28,13,30,9.00
2015,08,28,13,31,7.40
2015,08,28,13,32,6.10
2015,08,28,13,33,5.10
2015,08,28,13,34,3.00
2015,08,28,13,35,3.60
2015,08,28,13,36,7.00
2015,08,28,13,37,5.80
2015,08,28,13,38,5.80
2015,08,28,13,39,6.40
2015,08,28,13,40,5.80
2015,08,28,13,41,5.20
2015,08,28,13,42,4.80
2015,08,28,13,43,4.70
2015,08,28,13,44,5.80
2015,08,28,13,45,3.10
2015,08,28,13,46,3.20
2015,08,28,13,47,5.80
2015,08,28,13,48,4.20
2015,08,28,13,49,5.20
2015,08,28,13,50,4.40
2015,08,28,13,51,7.20
2015,08,28,13,52,6.90
2015,08,28,13,53,5.40
2015,08,28,13,54,4.60
2015,08,28,13,55,4.70
2015,08,28,13,56,9.20
2015,08,28,13,57,4.10
2015,08,28,13,58,5.90
2015,08,28,13,59,6.00
2015,08,28,14,00,6.00
2015,08,28,14,01,5.40
2015,08,28,14,02,6.00
2015,08,28,14,03,5.60
2015,08,28,14,04,5.40
2015,08,28,14,05,2.50
2015,08,28,14,06,7.80
2015,08,28,14,07,5.80
2015,08,28,14,08,8.60
2015,08,28,14,09,5.00
2015,08,28,14,10,4.30
2015,08,28,14,11,6.40
2015,08,28,14,12,4.60
2015,08,28,14,13,5.20
2015,08,28,14,14,5.70
2015,08,28,14,15,5.70
2015,08,28,14,16,3.30
2015,08,28,14,17,2.40
2015,08,28,14,18,5.50
2015,08,28,14,19,7.30
2015,08,28,14,20,11.70
2015,08,28,14,21,7.80
2015,08,28,14,22,6.00
2015,08,28,14,23,5.10
2015,08,28,14,24,6.00
2015,08,28,14,25,5.50
2015,08,28,14,26,5.30
2015,08,28,14,27,3.30
2015,08,28,14,28,3.50
2015,08,28,14,29,5.30
2015,08,28,14,30,5.50
2015,08,28,14,31,3.70
2015,08,28,14,32,4.10
2015,08,28,14,33,6.10
2015,08,28,14,34,5.30
2015,08,28,14,35,2.60
2015,08,28,14,36,6.20
2015,08,28,14,37,4.80
2015,08,28,14,38,5.10
2015,08,28,14,39,4.10
2015,08,28,14,40,5.10
2015,08,28,14,41,7.90
2015,08,28,14,42,4.10
2015,08,28,14,43,3.40
2015,08,28,14,44,5.50
2015,08,28,14,45,2.70
2015,08,28,14,46,4.60
2015,08,28,14,47,5.70
2015,08,28,14,48,5.30
2015,08,28,14,49,4.00
2015,08,28,14,50,4.70
2015,08,28,14,51,3.00
2015,08,28,14,52,3.40
2015,08,28,14,53,5.50
2015,08,28,14,54,4.60
2015,08,28,14,55,5.00
2015,08,28,14,56,5.20
2015,08,28,14,57,5.30
2015,08,28,14,58,4.50
2015,08,28,14,59,1.70
2015,08,28,15,00,4.80
2015,08,28,15,01,7.20
2015,08,28,15,02,6.40
2015,08,28,15,03,8.00
2015,08,28,15,04,6.00
2015,08,28,15,05,4.30
2015,08,28,15,06,4.90
2015,08,28,15,07,6.90
2015,08,28,15,08,6.50
2015,08,28,15,09,5.30
2015,08,28,15,10,4.70
2015,08,28,15,11,4.20
2015,08,28,15,12,7.00
2015,08,28,15,13,6.50
2015,08,28,15,14,3.80
2015,08,28,15,15,4.30
2015,08,28,15,16,4.90
2015,08,28,15,17,3.10
2015,08,28,15,18,4.30
2015,08,28,15,19,4.70
2015,08,28,15,20,5.10
2015,08,28,15,21,4.10
2015,08,28,15,22,5.60
2015,08,28,15,23,5.20
2015,08,28,15,24,7.10
2015,08,28,15,25,6.80
2015,08,28,15,26,5.00
2015,08,28,15,27,4.70
2015,08,28,15,28,6.70
2015,08,28,15,29,7.60
2015,08,28,15,30,5.20
2015,08,28,15,31,4.80
2015,08,28,15,32,6.10
2015,08,28,15,33,6.40
2015,08,28,15,34,3.30
2015,08,28,15,35,2.30
2015,08,28,15,36,8.60
2015,08,28,15,37,7.70
2015,08,28,15,38,4.00
2015,08,28,15,39,3.60
2015,08,28,15,40,4.20
2015,08,28,15,41,5.00
2015,08,28,15,42,6.50
2015,08,28,15,43,7.70
2015,08,28,15,44,4.60
2015,08,28,15,45,4.60
2015,08,28,15,46,5.60
2015,08,28,15,47,5.90
2015,08,28,15,48,4.60
2015,08,28,15,49,6.00
2015,08,28,15,50,5.40
2015,08,28,15,51,5.00
2015,08,28,15,52,4.10
2015,08,28,15,53,3.80
2015,08,28,15,54,7.60
2015,08,28,15,55,5.30
2015,08,28,15,56,3.90
2015,08,28,15,57,3.40
2015,08,28,15,58,6.20
2015,08,28,15,59,6.40
2015,08,28,16,00,4.00
2015,08,28,16,01,6.50
2015,08,28,16,02,4.10
2015,08,28,16,03,6.40
2015,08,28,16,04,4.60
2015,08,28,16,05,6.00
2015,08,28,16,06,3.50
2015,08,28,16,07,3.90
2015,08,28,16,08,5.90
2015,08,28,16,09,7.10
2015,08,28,16,10,4.90
2015,08,28,16,11,6.90
2015,08,28,16,12,7.80
2015,08,28,16,13,7.30
2015,08,28,16,14,6.90
2015,08,28,16,15,6.00
2015,08,28,16,16,9.10
2015,08,28,16,17,6.60
2015,08,28,16,18,5.40
2015,08,28,16,19,7.40
2015,08,28,16,20,8.40
2015,08,28,16,21,6.80
2015,08,28,16,22,7.30
2015,08,28,16,23,9.00
2015,08,28,16,24,8.50
2015,08,28,16,25,4.50
2015,08,28,16,26,8.20
2015,08,28,16,27,10.10
2015,08,28,16,28,2.60
2015,08,28,16,29,5.10
2015,08,28,16,30,5.20
2015,08,28,16,31,3.50
2015,08,28,16,32,2.90
2015,08,28,16,33,4.50
2015,08,28,16,34,4.80
2015,08,28,16,35,4.10
2015,08,28,16,36,4.50
2015,08,28,16,37,2.90
2015,08,28,16,38,4.90
2015,08,28,16,39,4.20
2015,08,28,16,40,3.90
2015,08,28,16,41,6.20
2015,08,28,16,42,4.70
2015,08,28,16,43,3.50
2015,08,28,16,44,1.90
2015,08,28,16,45,3.30
2015,08,28,16,46,6.00
2015,08,28,16,47,5.80
2015,08,28,16,48,2.90
2015,08,28,16,49,8.10
2015,08,28,16,50,4.70
2015,08,28,16,51,3.30
2015,08,28,16,52,4.30
2015,08,28,16,53,5.60
2015,08,28,16,54,8.10
2015,08,28,16,55,9.10
2015,08,28,16,56,4.80
2015,08,28,16,57,5.10
2015,08,28,16,58,4.30
2015,08,28,16,59,7.00
2015,08,28,17,00,4.00
2015,08,28,17,01,5.30
2015,08,28,17,02,7.60
2015,08,28,17,03,3.90
2015,08,28,17,04,6.80
2015,08,28,17,05,8.10
2015,08,28,17,06,5.70
2015,08,28,17,07,5.20
2015,08,28,17,08,4.80
2015,08,28,17,09,3.10
2015,08,28,17,10,5.60
2015,08,28,17,11,6.00
2015,08,28,17,12,3.30
2015,08,28,17,13,4.70
2015,08,28,17,14,5.90
2015,08,28,17,15,5.30
2015,08,28,17,16,5.80
2015,08,28,17,17,6.80
2015,08,28,17,18,6.40
2015,08,28,17,19,7.90
2015,08,28,17,20,7.20
2015,08,28,17,21,7.30
2015,08,28,17,22,5.20
2015,08,28,17,23,5.40
2015,08,28,17,24,5.00
2015,08,28,17,25,7.40
2015,08,28,17,26,8.60
2015,08,28,17,27,7.20
2015,08,28,17,28,3.90
2015,08,28,17,29,1.80
2015,08,28,17,30,5.20
2015,08,28,17,31,6.00
2015,08,28,17,32,6.60
2015,08,28,17,33,5.60
2015,08,28,17,34,4.80
2015,08,28,17,35,6.80
2015,08,28,17,36,3.80
2015,08,28,17,37,3.10
2015,08,28,17,38,3.10
2015,08,28,17,39,8.80
2015,08,28,17,40,5.80
2015,08,28,17,41,4.20
2015,08,28,17,42,2.60
2015,08,28,17,43,11.80
2015,08,28,17,44,6.40
2015,08,28,17,45,6.40
2015,08,28,17,46,3.80
2015,08,28,17,47,3.10
2015,08,28,17,48,3.80
2015,08,28,17,49,5.20
2015,08,28,17,50,6.10
2015,08,28,17,51,4.80
2015,08,28,17,52,4.70
2015,08,28,17,53,6.10
2015,08,28,17,54,4.90
2015,08,28,17,55,5.90
2015,08,28,17,56,3.40
2015,08,28,17,57,5.50
2015,08,28,17,58,5.30
2015,08,28,17,59,6.80
2015,08,28,18,00,9.60
2015,08,28,18,01,8.50
2015,08,28,18,02,6.30
2015,08,28,18,03,7.40